Flag for Bosnia-Herzegovina Weather past 2 weeks in Mostar, Bosnia-Herzegovina

Now
75 °F

Passing clouds.


Feels Like: 77 °F
Forecast: 63 / 86 °F
Wind: 2 mph from Southwest

Location: Mostar

Current Time: Jul 23, 2014 at 8:43:59 PM

Latest Report: Jul 23, 2014 at 8:00 PM


Visibility: N/A

Pressure: 29.77 "Hg

Humidity: 69%

Dew point: 64 °F

Location of MostarLocation

Historic Weather in Mostar — Graph

°F

Mostar temperature yesterday

Maximum temperature yesterday: 82 °F (at 12:30 PM)
Minimum temperature yesterday: 64 °F (at 4:30 AM)
Average temperature yesterday: 74 °F

Past Weeks' High & Low Weather Summary

 TemperatureHumidityPressure
High93 °F (Jul 19, 4:00 PM)100% (Jul 15, 7:00 AM)29.98 "Hg (Jul 15, 7:00 AM)
Low59 °F (Jul 11, 3:00 AM)31% (Jul 18, 2:00 PM)29.65 "Hg (Jul 10, 5:00 PM)
Average75 °F65%29.86 "Hg
* Reported Jul 8 7:00 PM — Jul 23 7:00 PM, Mostar, Weather by CustomWeather, © 2014

Note: Actual official high and low records may vary slightly from our data, if they occured in-between our weather recording intervals... More about our weather records

Advertising

Mostar weather history for previous 24 hours

 ConditionsComfort  
Time TempWeatherWind HumidityBarometerVisibility
7:00 PM
Jul 23
77 °FPassing clouds.1 mph65%29.74 "HgN/A
6:00 PM77 °FScattered clouds.6 mph65%29.74 "HgN/A
5:00 PM77 °FPassing clouds.9 mph65%29.74 "HgN/A
4:00 PM77 °FScattered clouds.8 mph65%29.74 "HgN/A
3:00 PM79 °FScattered clouds.6 mph70%29.71 "HgN/A
2:00 PM84 °FScattered clouds.5 mph43%29.71 "HgN/A
1:30 PM84 °FScattered clouds.5 mph43%29.71 "HgN/A
12:00 PM82 °FScattered clouds.5 mph45%29.71 "HgN/A
11:30 AM81 °FPassing clouds.5 mph45%29.74 "HgN/A
11:00 AM79 °FPassing clouds.5 mph58%29.74 "HgN/A
8:00 AM70 °FPassing clouds.2 mph78%29.74 "HgN/A
7:00 AM66 °FPassing clouds.1 mph88%29.74 "HgN/A
6:00 AM63 °FPassing clouds.2 mph94%29.74 "HgN/A
5:00 AM64 °FPassing clouds.3 mph88%29.74 "HgN/A
4:00 AM64 °FPassing clouds.1 mph94%29.74 "HgN/A
3:00 AM66 °FPassing clouds.2 mph88%29.74 "HgN/A
2:00 AM68 °FPassing clouds.2 mph83%29.74 "HgN/A
Weather by CustomWeather, © 2014

See weather overviewHow to use our weather pages